KN6WGU Weather Reports


time (UTC)temp
F
wind
direction
speed
knots
gust
knots
rain 1hr
in
rain 24hr
in
rain mn
in
humidity
%
barometer
mb
20260510164249 55 139 0.0 0.0 0.00 0.02 0.02 54 1011.7
20260510163744 55 129 0.0 0.9 0.00 0.02 0.02 50 1011.6
20260510163240 55 102 0.0 0.9 0.00 0.02 0.02 54 1011.5
20260510162739 55 173 0.0 0.9 0.00 0.02 0.02 45 1011.6
20260510162237 55 102 0.0 0.0 0.00 0.02 0.02 52 1011.5
20260510161732 54 110 0.9 1.7 0.00 0.02 0.02 53 1011.3
20260510161228 54 126 1.7 1.7 0.00 0.02 0.02 52 1011.5
20260510160727 54 229 0.9 1.7 0.00 0.02 0.02 54 1011.2
20260510160227 53 165 0.0 0.9 0.00 0.02 0.02 54 1011.3
20260510155723 54 36 1.7 1.7 0.00 0.02 0.02 55 1011.0
20260510155219 55 261 1.7 1.7 0.00 0.02 0.02 52 1010.9
20260510154715 54 84 0.9 1.7 0.00 0.02 0.02 52 1011.2
20260510154211 54 126 0.9 0.9 0.00 0.02 0.02 53 1010.9
20260510153706 53 148 1.7 1.7 0.00 0.02 0.02 48 1011.1
20260510153202 54 113 0.9 0.9 0.00 0.02 0.02 49 1010.8
20260510152659 54 103 0.9 1.7 0.00 0.02 0.02 53 1011.0
20260510152155 54 104 0.0 0.0 0.00 0.02 0.02 54 1010.8
20260510151652 54 10 0.9 0.9 0.00 0.02 0.02 53 1010.9
20260510151151 53 352 1.7 1.7 0.00 0.02 0.02 52 1011.0
20260510150646 54 217 0.9 0.9 0.00 0.02 0.02 56 1010.8
20260510150141 54 112 0.9 0.9 0.00 0.02 0.02 50 1010.7
20260510145638 53 149 0.0 0.9 0.00 0.02 0.02 54 1010.8
20260510145134 53 52 1.7 2.6 0.00 0.02 0.02 55 1010.7
20260510144630 53 151 1.7 2.6 0.00 0.02 0.02 51 1010.8
20260510144127 53 154 0.0 0.9 0.00 0.02 0.02 53 1010.8
20260510143622 53 123 0.9 0.9 0.00 0.02 0.02 55 1010.8
20260510143119 53 110 1.7 2.6 0.00 0.02 0.02 51 1010.6
20260510142616 53 112 0.9 0.9 0.00 0.02 0.02 54 1010.6
20260510142112 53 145 0.0 0.0 0.00 0.02 0.02 55 1010.6
20260510141609 53 178 0.9 1.7 0.00 0.02 0.02 54 1010.8
20260510141108 53 105 0.9 0.9 0.00 0.02 0.02 53 1010.8
20260510140603 53 75 1.7 2.6 0.00 0.02 0.02 50 1010.8
20260510135558 53 108 1.7 1.7 0.00 0.02 0.02 51 1010.8
20260510135054 53 132 1.7 1.7 0.00 0.02 0.02 52 1010.6
20260510134551 53 114 0.9 0.9 0.00 0.02 0.02 54 1010.3
20260510134048 53 103 0.9 0.9 0.00 0.02 0.02 53 1010.6
20260510133545 53 37 2.6 3.5 0.00 0.02 0.02 58 1010.4
20260510133041 52 146 0.0 0.9 0.00 0.02 0.02 58 1010.2
20260510132538 51 89 0.9 0.9 0.00 0.02 0.02 62 1010.1
20260510132034 51 112 1.7 2.6 0.00 0.02 0.02 62 1010.2
20260510131532 51 118 0.9 1.7 0.00 0.02 0.02 64 1010.2
20260510131029 50 103 1.7 1.7 0.00 0.02 0.02 63 1010.1
20260510130525 51 125 0.9 0.9 0.00 0.02 0.02 62 1010.0
20260510130023 50 81 0.9 1.7 0.00 0.02 0.02 64 1009.8
20260510125519 50 53 0.9 0.9 0.00 0.02 0.02 65 1010.0
20260510125015 50 125 1.7 2.6 0.00 0.02 0.02 67 1009.6
20260510124513 50 103 0.9 1.7 0.00 0.02 0.02 66 1009.7
20260510124010 50 150 0.9 0.9 0.00 0.02 0.02 67 1009.6
20260510123510 50 129 0.9 0.9 0.00 0.02 0.02 68 1009.5
20260510123006 50 32 0.9 0.9 0.00 0.02 0.02 69 1009.4
20260510122502 50 90 0.9 0.9 0.00 0.02 0.02 68 1009.5
20260510121958 50 117 1.7 1.7 0.00 0.02 0.02 67 1009.2
20260510121455 50 308 1.7 1.7 0.00 0.02 0.02 67 1009.2
20260510120953 50 150 0.9 0.9 0.00 0.02 0.02 66 1009.1
20260510120450 50 113 0.9 1.7 0.00 0.02 0.02 66 1009.1
20260510115945 50 111 0.9 1.7 0.00 0.02 0.02 65 1009.0
20260510115443 50 63 0.9 0.9 0.00 0.02 0.02 65 1008.8
20260510114939 49 124 0.9 1.7 0.00 0.02 0.02 65 1008.9
20260510114436 49 72 1.7 2.6 0.00 0.02 0.02 67 1008.7
20260510113931 49 112 0.0 0.0 0.00 0.02 0.02 69 1008.4
20260510113427 49 109 0.9 1.7 0.00 0.02 0.02 66 1008.5
20260510112925 49 108 0.0 0.9 0.00 0.02 0.02 69 1008.3
20260510112422 49 18 0.9 1.7 0.00 0.02 0.02 67 1008.1
20260510111918 49 136 0.9 0.9 0.00 0.02 0.02 65 1008.0
20260510111414 49 38 0.9 1.7 0.00 0.02 0.02 66 1008.1
20260510110910 49 75 0.0 0.9 0.00 0.02 0.02 73 1008.0
20260510110407 49 121 0.9 1.7 0.00 0.02 0.02 74 1007.8
20260510105903 49 139 1.7 1.7 0.00 0.02 0.02 76 1007.8
20260510105402 49 106 0.0 0.9 0.00 0.02 0.02 76 1007.7
20260510104858 48 99 0.9 0.9 0.00 0.02 0.02 74 1007.5
20260510104356 48 159 0.9 1.7 0.00 0.02 0.02 74 1007.3
20260510103852 48 336 0.9 1.7 0.00 0.02 0.02 75 1007.1
20260510103349 48 6 1.7 2.6 0.00 0.02 0.02 75 1007.2
20260510102844 48 66 0.9 1.7 0.00 0.02 0.02 76 1006.9
20260510102340 48 120 0.0 0.0 0.00 0.02 0.02 76 1006.9
20260510101838 48 124 0.0 0.9 0.00 0.02 0.02 76 1006.5
20260510101336 48 109 0.0 0.0 0.00 0.02 0.02 75 1006.5
20260510100832 48 144 0.9 0.9 0.00 0.02 0.02 75 1006.6
20260510100330 48 61 0.9 0.9 0.00 0.02 0.02 75 1006.5
20260510095826 48 109 0.9 1.7 0.00 0.02 0.02 75 1006.3
20260510095320 48 129 0.0 0.0 0.00 0.02 0.02 75 1006.3
20260510094814 48 121 0.9 0.9 0.00 0.02 0.02 74 1006.4
20260510094310 48 340 2.6 3.5 0.00 0.02 0.02 75 1006.2
20260510093806 48 131 1.7 1.7 0.00 0.02 0.02 77 1006.3
20260510093303 48 89 0.0 0.9 0.00 0.02 0.02 80 1006.3
20260510092759 48 141 0.0 0.9 0.00 0.02 0.02 81 1006.0
20260510092255 49 123 0.0 0.0 0.00 0.02 0.02 81 1005.8
20260510091750 49 157 0.0 0.9 0.00 0.02 0.02 80 1005.8
20260510091248 49 152 0.0 0.9 0.00 0.02 0.02 80 1005.9
20260510090744 49 94 0.0 0.0 0.00 0.02 0.02 80 1005.7
20260510090242 49 129 0.0 0.0 0.00 0.02 0.02 79 1005.7
20260510085737 49 120 0.0 0.0 0.00 0.02 0.02 78 1005.4
20260510085231 49 100 0.9 0.9 0.00 0.02 0.02 78 1005.4
20260510084728 49 43 0.9 0.9 0.00 0.02 0.02 80 1005.3
20260510084225 48 125 0.0 0.0 0.00 0.02 0.02 86 1005.3
20260510083721 48 123 0.0 0.0 0.00 0.02 0.02 89 1005.4
20260510083219 48 128 0.0 0.0 0.00 0.02 0.02 89 1005.2
20260510082714 47 139 0.0 0.0 0.00 0.02 0.02 90 1005.0
20260510082211 47 129 0.0 0.0 0.00 0.02 0.02 90 1005.1
20260510081704 47 129 0.0 0.0 0.00 0.02 0.02 91 1004.8
20260510081201 47 129 0.0 0.0 0.00 0.02 0.02 90 1004.9
20260510080700 46 129 0.0 0.0 0.00 0.02 0.02 90 1004.8
20260510080157 46 129 0.0 0.0 0.00 0.02 0.02 90 1004.7
20260510075654 46 129 0.0 0.0 0.00 0.02 0.02 88 1004.7
20260510075152 46 129 0.0 0.0 0.00 0.02 0.02 88 1004.6
20260510074649 46 129 0.0 0.0 0.00 0.02 0.02 87 1004.4
20260510074144 47 129 0.0 0.0 0.00 0.02 0.02 85 1004.3
20260510073641 47 129 0.0 0.0 0.00 0.02 0.02 84 1004.2
20260510073137 48 129 0.0 0.0 0.00 0.02 0.02 83 1004.2
20260510072633 48 128 0.0 0.0 0.00 0.02 0.02 82 1004.1
20260510072130 49 124 0.0 0.0 0.00 0.02 0.02 80 1004.2
20260510071626 49 122 0.0 0.0 0.00 0.02 0.02 79 1004.0
20260510071124 49 111 0.0 0.0 0.00 0.02 0.02 79 1003.6
20260510070621 49 116 0.0 0.0 0.00 0.02 0.02 79 1003.8
20260510070119 50 136 0.0 0.0 0.00 0.02 0.02 79 1003.6
20260510065614 50 139 0.9 1.7 0.00 0.02 0.02 77 1003.9
20260510065110 50 142 0.0 0.0 0.00 0.02 0.02 76 1003.6
20260510064607 50 123 0.9 0.9 0.00 0.02 0.02 76 1003.7
20260510064104 50 118 0.9 0.9 0.00 0.02 0.02 76 1003.9
20260510063601 51 127 0.0 0.0 0.00 0.02 0.02 76 1003.7
20260510063058 51 143 0.0 0.0 0.00 0.02 0.02 74 1003.8
20260510062553 51 57 0.9 0.9 0.00 0.02 0.02 74 1003.7
20260510062049 51 101 0.9 0.9 0.00 0.02 0.02 73 1003.5
20260510061545 51 17 1.7 2.6 0.00 0.02 0.02 74 1003.7
20260510061042 52 124 0.0 0.0 0.00 0.02 0.02 75 1003.6
20260510060539 52 133 0.0 0.0 0.00 0.02 0.02 74 1003.4
20260510060035 52 117 0.9 1.7 0.00 0.02 0.02 75 1003.4
20260510055531 52 89 0.9 1.7 0.00 0.02 0.02 75 1003.2
20260510055029 52 2 0.9 1.7 0.00 0.02 0.02 75 1003.1
20260510054525 52 127 0.9 1.7 0.00 0.02 0.02 77 1003.1
20260510054020 52 317 1.7 3.5 0.00 0.02 0.02 77 1003.1
20260510053515 52 71 1.7 3.5 0.00 0.02 0.02 78 1002.9
20260510053012 52 135 1.7 1.7 0.00 0.02 0.02 78 1003.0
20260510052508 53 79 1.7 2.6 0.00 0.02 0.02 78 1002.9
20260510052004 53 49 2.6 2.6 0.00 0.02 0.02 78 1002.7
20260510051500 54 126 2.6 5.2 0.00 0.02 0.02 82 1002.5
20260510050956 56 41 1.7 3.5 0.00 0.02 0.02 86 1002.3
20260510050454 57 97 1.7 2.6 0.00 0.02 0.02 85 1001.9
20260510045951 58 223 0.9 0.9 0.00 0.02 0.02 84 1001.7
20260510045448 57 122 1.7 3.5 0.00 0.02 0.02 83 1001.4
20260510044944 57 347 0.9 2.6 0.00 0.02 0.02 82 1001.4
20260510044441 58 172 1.7 1.7 0.07 0.02 0.02 81 1001.2
20260510043938 59 135 0.0 0.0 0.07 0.02 0.02 81 1001.3
20260510043434 61 292 3.5 5.2 0.00 0.01 0.01 74 1001.1
20260510042932 60 174 0.9 0.9 0.00 0.01 0.01 68 1000.4
20260510042428 60 164 1.7 1.7 0.05 0.01 0.01 67 1000.4
20260510041924 62 284 2.6 2.6 0.05 0.01 0.01 69 1000.7
20260510041421 60 247 4.3 6.1 0.00 0.00 0.00 61 1000.2
20260510040919 60 161 1.7 1.7 0.00 0.00 0.00 75 1000.2
20260510040415 60 181 1.7 1.7 0.00 0.00 0.00 75 1000.3
20260510035911 60 172 0.9 0.9 0.00 0.28 0.28 75 1000.0
20260510035408 60 159 0.9 1.7 0.00 0.28 0.28 74 1000.0
20260510034902 60 167 0.9 0.9 0.00 0.28 0.28 76 1000.0
20260510034401 60 164 0.9 1.7 0.00 0.28 0.28 76 1000.0
20260510033857 60 167 0.0 0.0 0.00 0.28 0.28 77 999.9
20260510033353 59 152 0.9 0.9 0.00 0.28 0.28 78 999.8
20260510032850 59 159 0.9 0.9 0.00 0.28 0.28 77 999.9
20260510032347 59 155 0.9 0.9 0.00 0.28 0.28 78 999.8
20260510031842 59 164 0.0 0.0 0.00 0.28 0.28 78 999.8
20260510031338 59 159 0.9 0.9 0.00 0.28 0.28 78 1000.0
20260510030838 59 164 0.9 0.9 0.00 0.28 0.28 79 999.9
20260510030334 59 184 1.7 1.7 0.00 0.28 0.28 78 999.9
20260510025832 59 172 0.9 1.7 0.00 0.28 0.28 78 999.9
20260510025329 59 218 0.9 1.7 0.00 0.28 0.28 77 999.9
20260510024826 59 178 1.7 1.7 0.00 0.28 0.28 78 999.9
20260510024323 59 183 0.9 0.9 0.00 0.28 0.28 78 999.8
20260510023819 59 162 0.0 0.0 0.00 0.28 0.28 78 999.6
20260510023315 59 156 0.0 0.0 0.00 0.28 0.28 78 999.7
20260510022813 59 167 0.9 0.9 0.00 0.28 0.28 78 999.7
20260510022312 59 266 1.7 2.6 0.00 0.28 0.28 79 999.9
20260510021811 59 162 0.9 0.9 0.00 0.28 0.28 79 999.6
20260510021310 59 162 0.9 0.9 0.00 0.28 0.28 79 999.8
20260510020805 59 168 2.6 2.6 0.00 0.28 0.28 79 1000.0
20260510020305 59 190 1.7 2.6 0.00 0.28 0.28 81 999.8
20260510015802 58 164 0.9 0.9 0.00 0.28 0.28 82 999.9
20260510015258 58 151 0.0 0.0 0.00 0.28 0.28 82 999.6
20260510014753 58 251 0.9 2.6 0.00 0.28 0.28 83 999.4
20260510014250 58 157 0.0 0.0 0.00 0.28 0.28 84 999.3
20260510013746 58 151 0.0 0.0 0.00 0.28 0.28 82 999.4
20260510013242 58 157 0.0 0.0 0.00 0.28 0.28 83 999.2
20260510012737 58 158 0.0 0.0 0.00 0.28 0.28 82 999.2
20260510012232 58 157 0.0 0.0 0.00 0.28 0.28 81 999.0
20260510011731 59 167 0.0 0.9 0.00 0.28 0.28 80 999.2
20260510011228 59 155 0.0 0.0 0.00 0.28 0.28 79 998.9
20260510010725 59 157 0.0 0.9 0.00 0.28 0.28 79 999.0
20260510010221 59 175 1.7 1.7 0.00 0.28 0.28 79 999.1
20260510005718 59 160 0.9 0.9 0.00 0.28 0.28 80 999.1
20260510005214 59 177 0.9 0.9 0.00 0.28 0.28 79 999.1
20260510004712 59 234 0.9 1.7 0.00 0.28 0.28 80 999.0
20260510004210 59 166 0.0 0.0 0.00 0.28 0.28 80 998.9
20260510003708 59 175 0.9 0.9 0.00 0.28 0.28 80 999.0
20260510003203 59 165 0.9 0.9 0.00 0.28 0.28 78 999.1
20260510002658 59 170 1.7 1.7 0.00 0.28 0.28 78 999.0
20260510002155 60 160 1.7 1.7 0.00 0.28 0.28 79 999.1
20260510001651 60 171 3.5 3.5 0.00 0.28 0.28 79 999.0
20260510001150 60 162 0.9 1.7 0.00 0.28 0.28 80 999.0
20260510000650 59 155 0.9 0.9 0.00 0.28 0.28 81 999.0
20260510000148 59 245 1.7 1.7 0.00 0.28 0.28 83 998.9
20260509235644 59 199 3.5 5.2 0.00 0.28 0.28 84 999.1
20260509235141 59 152 2.6 2.6 0.00 0.28 0.28 85 998.9
20260509234637 59 161 0.0 0.0 0.00 0.28 0.28 86 999.0
20260509234134 59 189 0.9 0.9 0.00 0.28 0.28 85 998.8
20260509233632 59 187 0.9 1.7 0.00 0.28 0.28 86 998.8
20260509233130 59 164 1.7 1.7 0.00 0.28 0.28 88 998.5
20260509232625 58 157 0.0 0.9 0.00 0.28 0.28 89 998.7
20260509232122 57 171 0.9 0.9 0.00 0.28 0.28 90 998.5
20260509231619 57 148 0.9 1.7 0.00 0.28 0.28 92 998.4
20260509231117 57 167 0.9 0.9 0.00 0.28 0.28 93 998.7
20260509230613 57 155 1.7 1.7 0.07 0.28 0.28 93 998.7
20260509230111 57 149 0.9 0.9 0.19 0.28 0.28 93 998.8
20260509225606 57 164 0.9 1.7 0.12 0.27 0.27 94 998.7
20260509225101 57 194 2.6 3.5 0.00 0.25 0.25 94 998.9
20260509224557 57 154 1.7 1.7 0.00 0.25 0.25 95 998.8
20260509224055 57 159 0.0 0.0 0.05 0.25 0.25 94 998.7
20260509223551 57 49 0.9 0.9 0.05 0.25 0.25 94 998.6
20260509223049 57 160 0.9 0.9 0.19 0.24 0.24 94 998.7
20260509222545 56 91 2.6 3.5 1.21 0.24 0.24 94 998.9
20260509222041 57 117 4.3 5.2 1.25 0.21 0.21 90 998.9
20260509221537 62 113 1.7 2.6 0.24 0.04 0.04 78 998.3
20260509221033 69 9 4.3 9.6 0.00 0.00 0.00 59 998.1
20260509220529 70 324 1.7 2.6 0.00 0.00 0.00 56 996.7
20260509220026 70 177 3.5 6.1 0.00 0.00 0.00 55 996.4
20260509215521 70 164 2.6 2.6 0.00 0.00 0.00 55 996.4
20260509215018 70 175 2.6 3.5 0.00 0.00 0.00 55 996.4
20260509214515 71 170 3.5 6.1 0.00 0.00 0.00 54 996.3
20260509214012 71 145 4.3 6.1 0.00 0.00 0.00 53 996.2
20260509213508 71 130 1.7 1.7 0.00 0.00 0.00 54 996.1
20260509213006 71 160 4.3 6.1 0.00 0.00 0.00 53 996.1
20260509212502 71 145 3.5 5.2 0.00 0.00 0.00 52 996.4
20260509211959 72 187 1.7 1.7 0.00 0.00 0.00 52 996.0
20260509211454 72 150 3.5 5.2 0.00 0.00 0.00 52 996.3
20260509210951 72 170 4.3 7.8 0.00 0.00 0.00 51 995.9
20260509210448 72 156 1.7 1.7 0.00 0.00 0.00 53 995.8
20260509205944 72 168 5.2 9.6 0.00 0.00 0.00 52 996.3
20260509205439 72 184 4.3 5.2 0.00 0.00 0.00 52 996.0
20260509204935 72 180 1.7 2.6 0.00 0.00 0.00 55 996.4
20260509204431 73 154 2.6 2.6 0.00 0.00 0.00 52 996.3
20260509203928 73 268 3.5 7.0 0.00 0.00 0.00 52 996.5
20260509203424 73 166 0.9 1.7 0.00 0.00 0.00 55 996.7
20260509202922 72 192 5.2 7.0 0.00 0.00 0.00 54 996.7
20260509202417 74 162 3.5 6.1 0.00 0.00 0.00 54 996.9
20260509201913 73 161 0.9 0.9 0.00 0.00 0.00 55 996.8
20260509201408 73 159 1.7 2.6 0.00 0.00 0.00 53 997.0
20260509200906 72 212 4.3 6.1 0.00 0.00 0.00 54 997.1
20260509200405 73 172 3.5 7.0 0.00 0.00 0.00 54 997.2
20260509195902 72 282 3.5 7.8 0.00 0.00 0.00 54 997.2
20260509195402 72 182 1.7 1.7 0.00 0.00 0.00 55 997.2
20260509194856 72 271 5.2 7.8 0.00 0.00 0.00 54 997.3
20260509194353 72 172 2.6 2.6 0.00 0.00 0.00 56 997.6
20260509193849 71 260 4.3 6.1 0.00 0.00 0.00 54 997.6
20260509193350 72 167 1.7 1.7 0.00 0.00 0.00 56 997.6
20260509192846 71 173 3.5 5.2 0.00 0.00 0.00 55 997.6
20260509192342 71 182 3.5 6.1 0.00 0.00 0.00 57 997.9
20260509191837 71 187 5.2 7.0 0.00 0.00 0.00 56 997.9
20260509191333 71 192 1.7 1.7 0.00 0.00 0.00 57 997.9
20260509190829 72 150 3.5 3.5 0.00 0.00 0.00 56 997.9
20260509190326 72 150 5.2 8.7 0.00 0.00 0.00 56 998.0
20260509185824 70 185 3.5 5.2 0.00 0.00 0.00 57 998.0
20260509185320 71 18 1.7 1.7 0.00 0.00 0.00 57 998.2
20260509184818 70 198 1.7 1.7 0.00 0.00 0.00 59 998.0
20260509184315 71 144 3.5 5.2 0.00 0.00 0.00 57 998.2
20260509183811 71 157 3.5 3.5 0.00 0.00 0.00 57 998.2
20260509183307 71 171 3.5 3.5 0.00 0.00 0.00 58 998.3
20260509182802 69 175 2.6 2.6 0.00 0.00 0.00 58 998.3
20260509182300 69 141 1.7 2.6 0.00 0.00 0.00 60 998.4
20260509181757 69 265 6.1 7.8 0.00 0.00 0.00 59 998.7
20260509181255 68 198 1.7 2.6 0.00 0.00 0.00 59 998.4
20260509180752 68 136 3.5 3.5 0.00 0.00 0.00 59 998.5
20260509180248 69 259 4.3 7.0 0.00 0.00 0.00 58 998.4
20260509175744 69 143 0.9 2.6 0.00 0.00 0.00 61 998.2
20260509175241 69 250 2.6 3.5 0.00 0.00 0.00 59 998.5
20260509174737 69 197 2.6 5.2 0.00 0.00 0.00 60 998.5
20260509174232 68 165 3.5 5.2 0.00 0.00 0.00 60 998.6
20260509173728 68 227 1.7 2.6 0.00 0.00 0.00 61 998.5
20260509173224 68 241 2.6 2.6 0.00 0.00 0.00 63 998.6
20260509172721 68 167 2.6 3.5 0.00 0.00 0.00 61 998.6
20260509172217 68 154 3.5 5.2 0.00 0.00 0.00 62 998.6
20260509171713 68 284 3.5 5.2 0.00 0.00 0.00 64 998.6
20260509171209 68 171 4.3 7.0 0.00 0.00 0.00 64 998.6
20260509170706 67 145 1.7 1.7 0.00 0.00 0.00 62 998.6
20260509170202 68 168 7.0 9.6 0.00 0.00 0.00 63 998.7
20260509165701 66 152 2.6 2.6 0.00 0.00 0.00 63 998.7
20260509165156 66 147 1.7 2.6 0.00 0.00 0.00 61 998.8